Weather History for McCook, NE

Change the Weather History Date:

Saturday, December 8, 2012

  Actual Average Record
Temperature  
Mean Temperature 37 °F 29 °F  
Max Temperature 50 °F 42 °F 68 °F (1970)
Min Temperature 23 °F 16 °F -21 °F (1909)
Degree Days  
Heating Degree Days 28    
Moisture  
Dew Point 23 °F    
Average Humidity 60    
Maximum Humidity 81    
Minimum Humidity 34    
Precipitation  
Precipitation T in 0.02 in 0.08 in (2007)
Month to date precipitation 0.01 0.18  
Year to date precipitation 8.14 22.07  
Sea Level Pressure  
Sea Level Pressure 29.89 in    
Wind  
Wind Speed 8 mph (South)    
Max Wind Speed 20 mph    
Max Gust Speed 24 mph    
Visibility 10 miles    
Events      
T = Trace of Precipitation, MM = Missing Value Source: NWS Daily Summary

Daily Weather History Graph

Daily Weather History Graph

Search for Another Location

Airport:

Trip Planner

Search our weather history database for the weather conditions in past years. The results will help you decide how hot, cold, wet, or windy it might be!

Date:

Astronomy

Dec. 08, 2012 Rise Set
Actual Time 7:52 AM CST 5:16 PM CST
Civil Twilight 7:22 AM CST 5:46 PM CST
Nautical Twilight 6:48 AM CST 6:20 PM CST
Astronomical Twilight 6:15 AM CST 6:53 PM CST
Moon 2:18 AM CST (12/8) 1:47 PM CST (12/8)
Length of Visible Light 10h 24m
Length of Day
9h 23m
Waning Crescent, 28% of the Moon is Illuminated
Dec 8
Waning Crescent
Dec 13
New
Dec 19
First Quarter
Dec 28
Full
Jan 4
Last Quarter

Hourly Weather History & Observations

Time (CST) Temp. Windchill Dew Point Humidity Pressure Visibility Wind Dir Wind Speed Gust Speed Precip Events Conditions
12:53 AM 30.0 °F 25.2 °F 21.0 °F 69% 30.03 in 10.0 mi North 4.6 mph - N/A   Overcast
1:53 AM 30.0 °F 26.5 °F 21.0 °F 69% 30.00 in 10.0 mi NNE 3.5 mph - N/A   Overcast
2:53 AM 28.9 °F 21.9 °F 21.0 °F 72% 29.99 in 10.0 mi SSE 6.9 mph - N/A   Overcast
3:53 AM 30.0 °F 25.2 °F 21.9 °F 72% 29.98 in 10.0 mi SSW 4.6 mph - N/A   Overcast
4:53 AM 28.4 °F 24.6 °F 21.2 °F 74% 29.93 in 10.0 mi South 3.5 mph - N/A   Overcast
5:53 AM 27.0 °F 20.5 °F 19.9 °F 75% 29.98 in 10.0 mi South 5.8 mph - N/A   Partly Cloudy
6:53 AM 27.0 °F 21.6 °F 19.0 °F 72% 29.98 in 10.0 mi SSE 4.6 mph - N/A   Clear
7:53 AM 25.0 °F 19.3 °F 19.0 °F 78% 29.97 in 10.0 mi SSE 4.6 mph - N/A   Partly Cloudy
8:53 AM 28.0 °F 22.8 °F 19.9 °F 72% 29.96 in 10.0 mi SSE 4.6 mph - N/A   Clear
9:53 AM 30.0 °F 25.2 °F 21.0 °F 69% 29.94 in 10.0 mi ESE 4.6 mph - N/A   Clear
10:53 AM 39.0 °F 31.8 °F 21.9 °F 50% 29.91 in 10.0 mi South 11.5 mph - N/A   Partly Cloudy
11:53 AM 42.1 °F 34.5 °F 23.0 °F 47% 29.88 in 10.0 mi South 15.0 mph - N/A   Mostly Cloudy
12:53 PM 46.0 °F 39.6 °F 23.0 °F 40% 29.83 in 10.0 mi South 15.0 mph - N/A   Scattered Clouds
1:53 PM 48.9 °F - 23.0 °F 36% 29.78 in 10.0 mi South 15.0 mph 24.2 mph N/A   Overcast
2:53 PM 48.0 °F - 23.0 °F 37% 29.74 in 10.0 mi South 18.4 mph - N/A   Clear
3:53 PM 48.0 °F - 21.0 °F 34% 29.74 in 10.0 mi South 16.1 mph - N/A   Clear
4:53 PM 45.0 °F 40.1 °F 21.0 °F 39% 29.77 in 10.0 mi SSE 9.2 mph - N/A   Clear
5:53 PM 41.0 °F 36.4 °F 19.9 °F 43% 29.80 in 10.0 mi SE 6.9 mph - N/A   Clear
6:53 PM 42.8 °F 36.2 °F 23.0 °F 46% 29.81 in 10.0 mi NNW 12.7 mph - N/A   Overcast
7:53 PM 39.9 °F 36.7 °F 30.0 °F 68% 29.86 in 10.0 mi SSE 4.6 mph - 0.00 in   Overcast
8:53 PM 35.1 °F 30.1 °F 28.0 °F 76% 29.86 in 10.0 mi ESE 5.8 mph - N/A   Overcast
9:53 PM 33.8 °F 29.6 °F 28.4 °F 81% 29.82 in 10.0 mi WSW 4.6 mph - N/A   Overcast
10:45 PM 37.4 °F 27.2 °F 26.6 °F 65% 29.85 in 10.0 mi NW 19.6 mph - N/A   Overcast
10:53 PM 37.0 °F 27.0 °F 26.1 °F 65% 29.90 in 10.0 mi NW 18.4 mph - N/A   Overcast
11:53 PM 37.0 °F 28.9 °F 23.0 °F 57% 29.93 in 10.0 mi WNW 12.7 mph - N/A   Overcast